Nome, AK

8:51 AM AKDT on August 21, 2017 (GMT -0800)
Nome

Weather History for PAOM - July, 2014

Change the Weather History Date:

Saturday, July 19, 2014

  Actual Average Record
Temperature  
Mean Temperature 48 °F 52 °F  
Max Temperature 55 °F 58 °F 83 °F (1985)
Min Temperature 41 °F 47 °F 30 °F (1930)
Degree Days  
Heating Degree Days 17 13  
Month to date heating degree days 233 244  
Since 1 June heating degree days 801 761  
Since 1 July heating degree days 233 244  
Cooling Degree Days 0 0  
Month to date cooling degree days 2 0  
Year to date cooling degree days 2 1  
Since 1 June cooling degree days 2 1  
Moisture  
Dew Point 44 °F    
Average Humidity 0    
Maximum Humidity 0    
Minimum Humidity 0    
Precipitation  
Precipitation 0.17 in 0.07 in 1.68 in (1953)
Month to date precipitation 2.17 1.09  
Year to date precipitation 6.86 6.21  
Snow  
Snow 0.00 in 0.00 in 0.00 in ()
Month to date snowfall 0.0 0.0  
Since 1 June snowfall 0.0 0.3  
Since 1 July snowfall 0.0 0.0  
Snow Depth 0.00 in    
Sea Level Pressure  
Sea Level Pressure 29.56 in    
Wind  
Wind Speed 17 mph (West)    
Max Wind Speed 28 mph    
Max Gust Speed 35 mph    
Visibility 7 miles    
Events Rain    
T = Trace of Precipitation, MM = Missing Value Source: NWS Daily Summary

Daily Weather History Graph

Daily Weather History Graph

Search for Another Location

Airport or City:

Trip Planner

Search our weather history database for the weather conditions in past years. The results will help you decide how hot, cold, wet, or windy it might be!

Date:

Astronomy

Jul. 19, 2014 Rise Set
Actual Time 5:22 AM AKDT 12:51 AM AKDT
Civil Twilight 3:40 AM AKDT 2:35 AM AKDT
Nautical Twilight Sun does not set Sun does not set
Astronomical Twilight Sun does not set Sun does not set
Moon 1:31 AM AKDT (7/19) 5:37 PM AKDT (7/19)
Length of Visible Light 22h 55m
Length of Day
19h 28m
Last Quarter, 42% of the Moon is Illuminated
Jul 19
Last Quarter
Jul 26
New
Aug 3
First Quarter
Aug 10
Full
Aug 17
Last Quarter

Hourly Weather History & Observations

Time (AKDT) Temp. Windchill Dew Point Humidity Pressure Visibility Wind Dir Wind Speed Gust Speed Precip Events Conditions
12:53 AM 48.9 °F - 44.1 °F 83% 29.69 in 10.0 mi SW 13.8 mph - N/A   Overcast
1:53 AM 48.9 °F - 46.0 °F 90% 29.66 in 10.0 mi SW 15.0 mph - N/A   Overcast
2:23 AM 48.0 °F - 45.0 °F 89% 29.65 in 10.0 mi WSW 19.6 mph - N/A   Overcast
2:53 AM 48.0 °F - 45.0 °F 89% 29.64 in 10.0 mi SW 20.7 mph - N/A   Overcast
3:53 AM 46.9 °F - 46.0 °F 97% 29.61 in 3.0 mi SW 20.7 mph - 0.00 in Rain Light Rain
4:02 AM 46.0 °F 38.0 °F 46.0 °F 100% 29.60 in 2.0 mi SW 21.9 mph - 0.00 in Rain Light Rain
4:31 AM 46.0 °F 38.5 °F 46.0 °F 100% 29.59 in 3.0 mi SW 19.6 mph - 0.00 in Rain Light Rain
4:53 AM 46.9 °F - 46.0 °F 97% 29.58 in 5.0 mi SW 18.4 mph - 0.01 in Rain Light Rain
5:53 AM 46.9 °F - 46.0 °F 97% 29.53 in 5.0 mi SW 20.7 mph - 0.07 in Rain Light Rain
6:24 AM 46.0 °F 38.5 °F 46.0 °F 100% 29.51 in 2.5 mi SW 19.6 mph - 0.05 in Rain Rain
6:31 AM 46.9 °F - 46.0 °F 97% 29.50 in 4.0 mi SW 21.9 mph - 0.05 in Rain Light Rain
6:53 AM 46.0 °F 37.6 °F 46.0 °F 100% 29.49 in 1.8 mi SW 24.2 mph - 0.05 in Rain Light Rain
7:33 AM 46.9 °F - 46.0 °F 97% 29.47 in 2.5 mi SW 20.7 mph - 0.02 in Rain Light Rain
7:44 AM 46.9 °F - 46.0 °F 97% 29.46 in 3.0 mi SW 20.7 mph - 0.02 in Rain Light Rain
7:53 AM 46.9 °F - 46.9 °F 100% 29.46 in 4.0 mi SW 21.9 mph - 0.02 in Rain Light Rain
8:30 AM 48.0 °F - 46.9 °F 96% 29.44 in 5.0 mi WSW 17.3 mph - 0.01 in Rain Light Rain
8:53 AM 48.0 °F - 46.9 °F 96% 29.43 in 3.0 mi WSW 16.1 mph - 0.01 in Rain Light Rain
8:58 AM 48.0 °F - 48.0 °F 100% 29.43 in 2.5 mi WSW 15.0 mph - 0.00 in   Light Drizzle
9:24 AM 48.0 °F - 46.9 °F 96% 29.43 in 5.0 mi West 13.8 mph - 0.01 in   Overcast
9:46 AM 48.0 °F - 46.9 °F 96% 29.43 in 10.0 mi WNW 10.4 mph - 0.01 in   Overcast
9:53 AM 48.9 °F - 48.0 °F 97% 29.43 in 10.0 mi West 13.8 mph - 0.01 in   Overcast
10:53 AM 50.0 °F - 46.9 °F 89% 29.44 in 10.0 mi NW 13.8 mph - N/A   Mostly Cloudy
11:18 AM 52.0 °F - 48.0 °F 86% 29.44 in 10.0 mi NW 21.9 mph - N/A   Mostly Cloudy
11:53 AM 53.1 °F - 46.9 °F 80% 29.46 in 10.0 mi NW 16.1 mph 25.3 mph N/A   Mostly Cloudy
12:53 PM 54.0 °F - 45.0 °F 72% 29.47 in 10.0 mi NNW 16.1 mph 23.0 mph N/A   Mostly Cloudy
1:00 PM 54.0 °F - 45.0 °F 72% 29.47 in 10.0 mi NNW 17.3 mph - N/A   Mostly Cloudy
1:53 PM 53.1 °F - 45.0 °F 74% 29.51 in 10.0 mi North 16.1 mph 25.3 mph N/A   Mostly Cloudy
2:53 PM 55.0 °F - 44.1 °F 67% 29.54 in 10.0 mi North 19.6 mph 26.5 mph N/A   Mostly Cloudy
3:53 PM 54.0 °F - 42.1 °F 64% 29.58 in 10.0 mi NNW 18.4 mph 28.8 mph N/A   Mostly Cloudy
4:53 PM 54.0 °F - 41.0 °F 62% 29.61 in 10.0 mi NNW 17.3 mph 26.5 mph N/A   Mostly Cloudy
5:53 PM 53.1 °F - 37.9 °F 57% 29.64 in 10.0 mi NNW 18.4 mph 24.2 mph N/A   Mostly Cloudy
6:53 PM 53.6 °F - 37.4 °F 54% 29.66 in 10.0 mi NNW 16.1 mph 24.2 mph N/A   Mostly Cloudy
7:53 PM 51.1 °F - 37.0 °F 59% 29.69 in 10.0 mi NNW 21.9 mph 28.8 mph N/A   Scattered Clouds
8:53 PM 48.9 °F - 37.0 °F 64% 29.72 in 10.0 mi North 13.8 mph - N/A   Scattered Clouds
9:53 PM 48.9 °F - 37.0 °F 64% 29.75 in 10.0 mi NNW 12.7 mph - N/A   Partly Cloudy
10:53 PM 48.0 °F - 36.0 °F 63% 29.77 in 10.0 mi NW 11.5 mph - N/A   Partly Cloudy
11:53 PM 44.1 °F 37.1 °F 37.0 °F 76% 29.79 in 10.0 mi West 15.0 mph - N/A   Partly Cloudy